Regional Weather Roundup
Issued by NWS

Home | Current Version | Previous Version | Graphics & Text | Print | Product List | Glossary On
Versions: 1 2 3 4 5 6 7 8 9 10 11 12 13 14 15 16 17 18 19 20 21 22 23 24 25 26 27 28 29 30 31 32 33 34 35 36 37 38 39 40 41 42 43 44 45 46 47 48 49 50
524
ASUS43 KDMX 230006
RWRIA

WEATHER ROUNDUP FOR IOWA
NATIONAL WEATHER SERVICE DES MOINES IA
700 PM CDT MON MAY 22 2017

NOTE: "FAIR" INDICATES FEW OR NO CLOUDS BELOW 12,000 FEET WITH NO
SIGNIFICANT WEATHER AND/OR OBSTRUCTIONS TO VISIBILITY.

* - THESE STATIONS ARE NOT NWS STATIONS...THUS NOT UNDER NWS
QUALITY CONTROL.  THEY ALSO DO NOT REPORT WEATHER SUCH
AS PRECIPITATION OR FOG.

IAZ001>003-012>014-020>022-031>034-043>046-230100-
   NORTHWEST IOWA

CITY           SKY/WX    TMP DP  RH WIND       PRES   REMARKS
CARROLL *      CLOUDY    66  55  68 W8        29.83R
CHEROKEE *     SUNNY     62  50  66 NW12G17   29.84R
DENISON *      CLOUDY    64  48  55 NW9       29.86R
LE MARS *      MOSUNNY   63  48  59 NW14G22   29.85S
ORANGE CITY *  MOSUNNY   61  50  67 NW18G24   29.84S
SHELDON *      MOSUNNY   63  46  55 W18G26      N/A
SIOUX CITY     SUNNY     64  49  57 NW14      29.85R
6HR MIN TEMP:  61; 6HR MAX TEMP:  73; 6HR PCP: TRACE;

SPENCER        CLOUDY    61  52  72 NW10      29.82F
6HR MIN TEMP:  54; 6HR MAX TEMP:  71; 6HR PCP:  0.18;

STORM LAKE *   MOSUNNY   61  48  63 NW16G22   29.83R
$$

IAZ055>058-069>071-079>083-090>094-230100-
   SOUTHWEST IOWA

CITY           SKY/WX    TMP DP  RH WIND       PRES   REMARKS
ATLANTIC *     DRIZZLE   61  55  82 SW20G25   29.85R
AUDUBON *      CLOUDY    57  54  88 SW10G22   29.87F
CLARINDA *     CLOUDY    66  54  63 SW8G17    29.90R
COUNCIL BLFS * CLOUDY    61  55  82 SW9G15    29.87R
CRESTON *      CLOUDY    63  54  72 SW12G18   29.88S
HARLAN  *      CLOUDY    63  55  77 SW10G16   29.89F
LAMONI         CLOUDY    60  54  80 SW10      29.88F
6HR MIN TEMP:  60; 6HR MAX TEMP:  63; 6HR PCP: TRACE;

RED OAK *      CLOUDY    64  54  68 SW16G25   29.86S
SHENANDOAH *   CLOUDY    66  54  63 SW12      29.89R
$$

IAZ047>049-059>061-072>074-084-230100-
   CENTRAL IOWA

CITY           SKY/WX    TMP DP  RH WIND       PRES   REMARKS
AMES           CLOUDY    67  52  58 SW17      29.80F
6HR MIN TEMP:  67; 6HR MAX TEMP:  72;

ANKENY *       CLOUDY    68  54  60 SW14G24   29.83S
BOONE *        CLOUDY    68  52  56 SW15      29.80S
DES MOINES     CLOUDY    68  52  56 SW18      29.83S
6HR MIN TEMP:  68; 6HR MAX TEMP:  72;

GRINNELL*      CLOUDY    66  54  63 SW15      29.84F
MARSHALLTOWN   CLOUDY    68  52  56 SW15      29.79F
6HR MIN TEMP:  65; 6HR MAX TEMP:  71; 6HR PCP:  0.01;

NEWTON *       CLOUDY    66  54  63 SW15      29.82S
PELLA *        CLOUDY    65  53  66 SW10G16   29.86S
PERRY *          N/A     67  50  53 SW14      29.82R
$$

IAZ004>006-015-016-023>025-035-036-230100-
   NORTH CENTRAL IOWA

CITY           SKY/WX    TMP DP  RH WIND       PRES   REMARKS
ALGONA *       CLOUDY    57  54  88 N14G23    29.80F
CLARION *      CLOUDY    63  52  67 NW22G40   29.80R
ESTHERVILLE    CLOUDY    55  51  86 W5        29.82F
6HR MIN TEMP:  54; 6HR MAX TEMP:  68; 6HR PCP:  0.31;

FORT DODGE *   CLOUDY    59  48  67 SW7       29.83R
MASON CITY     MOSUNNY   60  50  69 W7        29.79F
6HR MIN TEMP:  60; 6HR MAX TEMP:  70; 6HR PCP: TRACE;

FOREST CITY *  CLOUDY    61  46  59 W23G32    29.84R
WEBSTER CITY * PTSUNNY   68  48  49 SW12      29.77S
IOWA FALLS *   PTSUNNY   68  55  62 SW15      29.79F
$$

IAZ007>011-017>019-026>030-037>042-050>054-066-230100-
   NORTHEAST IOWA

CITY           SKY/WX    TMP DP  RH WIND       PRES   REMARKS
CEDAR RAPIDS   MOSUNNY   64  58  80 SW14      29.82F
6HR MIN TEMP:  64; 6HR MAX TEMP:  71;

CHARLES CITY * PTSUNNY   64  55  72 CALM      29.79F
CLINTON *      CLOUDY    64  56  75 SW17      29.86F
DECORAH *      CLOUDY    66  50  55 CALM      29.79F
DUBUQUE        CLOUDY    62  56  80 SW15      29.82F
6HR MIN TEMP:  62; 6HR MAX TEMP:  69; 6HR PCP:  0.02;

MONTICELLO *   CLOUDY    64  57  77 SW15      29.82S
OELWEIN *      LGT RAIN  59  52  77 NE8       29.81S
WATERLOO       CLOUDY    68  53  58 SW14      29.78S
6HR MIN TEMP:  66; 6HR MAX TEMP:  72; 6HR PCP: TRACE;

$$

IAZ064-065-067-068-078-230100-
   EAST CENTRAL IOWA

CITY           SKY/WX    TMP DP  RH WIND       PRES   REMARKS
DAVENPORT      CLOUDY    63  54  72 S13       29.86F
6HR MIN TEMP:  63; 6HR MAX TEMP:  69; 6HR PCP: TRACE;

IOWA CITY      CLOUDY    65  56  72 SW10      29.86F
6HR MIN TEMP:  65; 6HR MAX TEMP:  72;

MT. PLEASANT * CLOUDY    62  55  80 SW15      29.90S
MUSCATINE *    MOSUNNY   64  55  72 SW14G21   29.87F
QUAD CITIES    MOSUNNY   64  54  69 S13G22    29.87F
6HR MIN TEMP:  64; 6HR MAX TEMP:  72; 6HR PCP: TRACE;

$$

IAZ062-063-075>077-085>089-095>099-230100-
   SOUTHEAST IOWA

CITY           SKY/WX    TMP DP  RH WIND       PRES   REMARKS
BURLINGTON     CLOUDY    61  59  93 S9        29.91F
6HR MIN TEMP:  59; 6HR MAX TEMP:  64; 6HR PCP:  0.17;

FAIRFIELD *    MOSUNNY   63  54  72 SW14G24   29.88F
FORT MADISON * CLOUDY    61  59  94 SW8       29.93S
KEOKUK *       CLOUDY    61  59  94 SW8       29.93S
OSKALOOSA *      N/A     63  56  78 SW17      29.87S
CENTERVILLE *    N/A     59  55  88 S10       29.92S
OTTUMWA        CLOUDY    64  57  78 SW17      29.87F
6HR MIN TEMP:  62; 6HR MAX TEMP:  66; 6HR PCP: TRACE;

WASHINGTON *   CLOUDY    63  57  82 SW14      29.88F
$$

ABBREVIATIONS USED IN REMARKS
   TC - TEMPERATURES IN CELSIUS
  WCI - WIND CHILL INDEX
   HX - HEAT INDEX
  VSB - VISIBILITY
$$





USA.gov is the U.S. government's official web portal to all federal, state and local government web resources and services.